Location: Praha
(50.0830°N, 14.4670°E)
Time: 15:27:01
(UTC+01:00)

ISS - Pass Details

Date: 07 December 2018
Orbit: 401 x 408 km, 51.6° (Epoch: 12 December)

Event Time Altitude Azimuth Distance (km) Brightness Sun altitude
Rises 16:51:25 0° 278° (W) 2,319 1.1 -7.8°
Reaches altitude 10° 16:53:31 10° 281° (WNW) 1,458 -0.1 -8.1°
Maximum altitude 16:56:46 65° 5° (N) 445 -3.8 -8.6°
Enters shadow 16:59:50 11° 88° (E) 1,386 -1.7 -9.1°
